{"data":{"norad_id":60481,"intl_designator":"2024-149P","name":"FLOCK 4BE-7","alt_names":[],"object_type":"PAYLOAD","status":"ACTIVE","operator":null,"country":"US","launch_date":"2024-08-16","launch_site_code":"AFWTR","launch_vehicle":null,"mission":null,"orbit_class":"UNKNOWN","rcs_meters":null,"size_class":null,"mass_kg":null,"dimensions":null,"purposes":["earth_obs"],"wikipedia_slug":null,"has_3d_model":false,"image_url":null,"decayed_at":null,"tle_current":{"epoch":"2026-05-25T03:33:47.781216Z","epoch_age_seconds":72295,"freshness":"FRESH","line1":"1 60481U 24149P   26145.14846969  .00022796  00000+0  58673-3 0  9991","line2":"2 60481  97.3758 228.0392 0002127  17.4464 342.6854 15.39245299 98709","mean_motion":15.39245299,"eccentricity":0.0002127,"inclination_deg":97.3758,"raan_deg":228.0392,"arg_perigee_deg":17.4464,"mean_anomaly_deg":342.6854,"bstar":0.00058673,"rev_number":9870,"period_min":93.552340288811,"perigee_km":446.8877894609,"apogee_km":449.79177268357,"semimajor_km":6826.4767810722,"source":"CELESTRAK","updated_at":"2026-05-25T13:38:13.302402Z"}}}